QPF
0.01 0.00 0.00 0.01 0.01 0.02 0.02 0.02 0.02 0.02 0.02 0.02 0.03 0.04 0.03 0.04 0.05 0.04 0.04 0.03 0.03 0.03 0.03 0.03 0.03 0.04 0.05 0.05 0.05 0.05 0.05 0.08 0.08 0.06 0.07 0.08 0.09 0.07 0.09 0.10 0.11 0.12 0.11
0.01 0.01 0.01 0.00 0.01 0.01 0.02 0.02 0.02 0.02 0.02 0.03 0.04 0.04 0.04 0.04 0.05 0.06 0.05 0.04 0.04 0.04 0.03 0.03 0.03 0.05 0.06 0.05 0.04 0.04 0.05 0.08 0.09 0.08 0.07 0.08 0.08 0.07 0.07 0.07 0.06 0.06 0.07
0.01 0.01 0.00 0.00 0.00 0.01 0.02 0.03 0.03 0.02 0.02 0.03 0.03 0.04 0.04 0.04 0.04 0.04 0.04 0.04 0.04 0.05 0.04 0.04 0.05 0.05 0.05 0.06 0.06 0.05 0.05 0.06 0.09 0.08 0.08 0.09 0.08 0.07 0.07 0.05 0.05 0.06 0.03
0.02 0.01 0.01 0.01 0.01 0.01 0.03 0.04 0.04 0.04 0.04 0.04 0.04 0.05 0.04 0.04 0.04 0.03 0.03 0.03 0.03 0.04 0.04 0.04 0.04 0.04 0.04 0.04 0.04 0.03 0.03 0.04 0.05 0.06 0.06 0.06 0.06 0.07 0.07 0.06 0.06 0.05 0.04
0.03 0.03 0.02 0.02 0.02 0.03 0.04 0.04 0.05 0.05 0.05 0.07 0.06 0.06 0.05 0.04 0.04 0.03 0.04 0.04 0.04 0.03 0.03 0.02 0.02 0.02 0.02 0.02 0.01 0.02 0.02 0.03 0.04 0.04 0.04 0.04 0.04 0.05 0.04 0.05 0.05 0.05 0.05
0.05 0.05 0.05 0.04 0.04 0.04 0.04 0.05 0.06 0.06 0.06 0.07 0.07 0.07 0.06 0.04 0.04 0.04 0.04 0.05 0.05 0.04 0.03 0.03 0.03 0.03 0.02 0.02 0.01 0.01 0.01 0.02 0.03 0.04 0.03 0.03 0.04 0.04 0.04 0.04 0.04 0.04 0.05
0.03 0.04 0.04 0.04 0.06 0.07 0.06 0.06 0.05 0.05 0.05 0.07 0.08 0.08 0.06 0.04 0.04 0.03 0.03 0.04 0.04 0.04 0.04 0.04 0.03 0.03 0.04 0.03 0.02 0.01 0.01 0.01 0.01 0.02 0.02 0.03 0.03 0.03 0.03 0.04 0.04 0.05 0.06
0.02 0.03 0.05 0.06 0.07 0.07 0.07 0.06 0.04 0.03 0.04 0.05 0.06 0.06 0.07 0.07 0.06 0.04 0.03 0.02 0.03 0.03 0.04 0.04 0.04 0.03 0.03 0.03 0.03 0.03 0.02 0.02 0.02 0.01 0.01 0.02 0.02 0.02 0.02 0.03 0.03 0.03 0.04
0.02 0.03 0.05 0.05 0.05 0.04 0.05 0.05 0.04 0.04 0.04 0.03 0.04 0.04 0.05 0.05 0.04 0.03 0.03 0.03 0.04 0.03 0.03 0.03 0.03 0.03 0.03 0.03 0.03 0.03 0.02 0.02 0.02 0.01 0.01 0.01 0.01 0.01 0.01 0.01 0.03 0.04 0.04
0.03 0.03 0.05 0.05 0.04 0.05 0.05 0.05 0.05 0.04 0.04 0.04 0.04 0.04 0.04 0.04 0.05 0.04 0.03 0.03 0.03 0.04 0.04 0.03 0.02 0.02 0.02 0.02 0.02 0.01 0.01 0.02 0.01 0.01 0.02 0.02 0.02 0.01 0.01 0.01 0.02 0.03 0.04
0.04 0.05 0.06 0.06 0.06 0.06 0.06 0.05 0.04 0.04 0.04 0.04 0.04 0.04 0.03 0.04 0.05 0.04 0.03 0.02 0.03 0.03 0.04 0.04 0.04 0.04 0.03 0.02 0.02 0.01 0.01 0.01 0.01 0.02 0.03 0.03 0.02 0.02 0.02 0.01 0.02 0.03 0.03
0.04 0.05 0.06 0.07 0.07 0.07 0.07 0.07 0.06 0.06 0.05 0.04 0.04 0.03 0.03 0.03 0.04 0.04 0.04 0.03 0.03 0.03 0.04 0.05 0.05 0.04 0.03 0.02 0.01 0.00 0.00 0.00 0.01 0.02 0.03 0.03 0.03 0.03 0.03 0.04 0.03 0.03 0.03
0.04 0.07 0.09 0.10 0.11 0.12 0.12 0.11 0.10 0.09 0.07 0.05 0.04 0.04 0.03 0.04 0.04 0.04 0.04 0.04 0.04 0.04 0.04 0.04 0.03 0.02 0.01 0.01 0.01 0.01 0.01 0.01 0.02 0.02 0.03 0.03 0.03 0.04 0.05 0.04 0.04 0.03 0.03
0.06 0.07 0.07 0.09 0.12 0.15 0.17 0.16 0.14 0.12 0.10 0.09 0.07 0.05 0.04 0.05 0.06 0.06 0.05 0.04 0.04 0.03 0.02 0.02 0.02 0.01 0.01 0.01 0.01 0.01 0.01 0.01 0.01 0.03 0.03 0.04 0.04 0.04 0.03 0.03 0.03 0.02 0.02
0.07 0.08 0.08 0.10 0.13 0.14 0.15 0.14 0.13 0.12 0.10 0.09 0.07 0.06 0.04 0.04 0.05 0.05 0.03 0.03 0.03 0.02 0.02 0.02 0.02 0.01 0.01 0.01 0.01 0.01 0.00 0.00 0.01 0.01 0.03 0.03 0.03 0.02 0.02 0.02 0.03 0.02 0.01
0.05 0.08 0.09 0.10 0.11 0.11 0.11 0.10 0.10 0.10 0.10 0.10 0.09 0.07 0.05 0.04 0.04 0.03 0.03 0.03 0.03 0.03 0.02 0.02 0.01 0.01 0.01 0.00 0.01 0.01 0.00 0.00 0.00 0.01 0.01 0.02 0.02 0.01 0.01 0.01 0.01 0.02 0.02
0.05 0.07 0.09 0.09 0.09 0.08 0.09 0.08 0.08 0.07 0.06 0.06 0.06 0.07 0.08 0.07 0.06 0.04 0.04 0.04 0.04 0.04 0.02 0.02 0.01 0.01 0.01 0.01 0.01 0.01 0.01 0.01 0.01 0.02 0.01 0.02 0.02 0.01 0.01 0.01 0.01 0.01 0.01
0.05 0.06 0.06 0.07 0.08 0.08 0.07 0.06 0.06 0.06 0.05 0.04 0.04 0.04 0.05 0.06 0.07 0.07 0.06 0.06 0.06 0.05 0.03 0.02 0.02 0.02 0.02 0.02 0.02 0.02 0.02 0.03 0.03 0.02 0.02 0.02 0.02 0.02 0.02 0.02 0.01 0.01 0.01
0.04 0.06 0.08 0.06 0.06 0.06 0.05 0.05 0.04 0.04 0.04 0.03 0.03 0.03 0.05 0.06 0.08 0.10 0.10 0.07 0.05 0.04 0.03 0.03 0.03 0.03 0.03 0.03 0.03 0.04 0.04 0.04 0.03 0.03 0.03 0.03 0.02 0.02 0.02 0.02 0.02 0.02 0.02
0.04 0.04 0.05 0.07 0.07 0.06 0.05 0.04 0.04 0.04 0.04 0.04 0.03 0.04 0.04 0.05 0.05 0.06 0.07 0.07 0.06 0.04 0.03 0.03 0.03 0.04 0.04 0.04 0.04 0.03 0.03 0.03 0.03 0.03 0.03 0.03 0.03 0.03 0.03 0.03 0.02 0.02 0.02
0.05 0.05 0.05 0.06 0.08 0.08 0.06 0.07 0.07 0.06 0.05 0.05 0.04 0.04 0.04 0.04 0.04 0.04 0.05 0.05 0.06 0.05 0.04 0.03 0.03 0.03 0.03 0.03 0.03 0.03 0.03 0.03 0.03 0.03 0.03 0.04 0.04 0.04 0.04 0.04 0.03 0.02 0.02
0.07 0.05 0.06 0.06 0.09 0.08 0.08 0.08 0.09 0.08 0.08 0.08 0.06 0.05 0.05 0.05 0.05 0.06 0.06 0.07 0.06 0.06 0.05 0.04 0.04 0.04 0.04 0.04 0.04 0.04 0.04 0.05 0.05 0.05 0.04 0.05 0.05 0.04 0.03 0.03 0.02 0.01 0.01
0.09 0.07 0.06 0.06 0.06 0.07 0.07 0.07 0.08 0.10 0.10 0.09 0.08 0.07 0.06 0.06 0.07 0.08 0.09 0.09 0.09 0.08 0.07 0.06 0.05 0.04 0.04 0.04 0.04 0.04 0.04 0.04 0.04 0.04 0.04 0.04 0.04 0.04 0.03 0.03 0.02 0.02 0.02
0.08 0.09 0.09 0.07 0.07 0.06 0.06 0.06 0.07 0.08 0.09 0.08 0.07 0.07 0.06 0.06 0.06 0.06 0.07 0.07 0.07 0.06 0.05 0.05 0.05 0.04 0.05 0.05 0.05 0.05 0.04 0.04 0.04 0.03 0.03 0.03 0.03 0.03 0.04 0.04 0.03 0.03 0.02
0.05 0.06 0.07 0.07 0.08 0.08 0.07 0.06 0.05 0.06 0.07 0.07 0.07 0.07 0.07 0.07 0.06 0.06 0.06 0.05 0.05 0.04 0.04 0.04 0.03 0.03 0.04 0.04 0.04 0.04 0.05 0.05 0.05 0.04 0.04 0.04 0.04 0.04 0.04 0.04 0.04 0.04 0.04
0.06 0.06 0.07 0.07 0.07 0.07 0.07 0.07 0.06 0.05 0.05 0.05 0.05 0.07 0.07 0.06 0.05 0.04 0.03 0.03 0.04 0.03 0.03 0.03 0.03 0.02 0.03 0.03 0.04 0.05 0.05 0.05 0.05 0.05 0.05 0.05 0.05 0.05 0.04 0.04 0.04 0.04 0.04
MSLP
1008.05 1008.61 1009.11 1009.55 1009.87 1010.10 1010.23 1010.31 1010.39 1010.48 1010.64 1010.87 1011.17 1011.52 1011.87 1012.19 1012.46 1012.65 1012.75 1012.79 1012.79 1012.79 1012.81 1012.88 1013.00 1013.17 1013.38 1013.59 1013.78 1013.91 1013.97 1013.95 1013.86 1013.70 1013.49 1013.27 1013.06 1012.88 1012.76 1012.70 1012.70 1012.75 1012.85
1007.55 1008.15 1008.68 1009.14 1009.48 1009.71 1009.86 1009.95 1010.02 1010.11 1010.26 1010.48 1010.77 1011.09 1011.43 1011.75 1012.00 1012.17 1012.27 1012.29 1012.26 1012.22 1012.20 1012.23 1012.31 1012.46 1012.65 1012.87 1013.09 1013.28 1013.43 1013.50 1013.51 1013.45 1013.34 1013.19 1013.03 1012.87 1012.74 1012.65 1012.60 1012.60 1012.64
1007.00 1007.65 1008.23 1008.72 1009.11 1009.37 1009.54 1009.65 1009.73 1009.83 1009.98 1010.18 1010.45 1010.75 1011.07 1011.36 1011.59 1011.76 1011.84 1011.85 1011.81 1011.75 1011.71 1011.70 1011.75 1011.85 1012.02 1012.22 1012.44 1012.65 1012.84 1012.98 1013.06 1013.09 1013.06 1012.98 1012.87 1012.75 1012.62 1012.52 1012.44 1012.40 1012.40
1006.34 1007.04 1007.68 1008.22 1008.65 1008.97 1009.19 1009.34 1009.45 1009.57 1009.72 1009.91 1010.16 1010.43 1010.71 1010.98 1011.19 1011.34 1011.42 1011.43 1011.39 1011.33 1011.27 1011.24 1011.26 1011.33 1011.46 1011.63 1011.82 1012.03 1012.23 1012.40 1012.53 1012.62 1012.65 1012.64 1012.59 1012.51 1012.41 1012.32 1012.23 1012.18 1012.16
1005.55 1006.28 1006.96 1007.56 1008.05 1008.43 1008.71 1008.91 1009.07 1009.22 1009.39 1009.57 1009.80 1010.04 1010.28 1010.51 1010.70 1010.83 1010.91 1010.93 1010.91 1010.86 1010.82 1010.79 1010.79 1010.84 1010.93 1011.06 1011.22 1011.40 1011.59 1011.76 1011.92 1012.04 1012.13 1012.18 1012.19 1012.16 1012.11 1012.04 1011.98 1011.93 1011.92
1004.65 1005.39 1006.09 1006.72 1007.26 1007.70 1008.04 1008.31 1008.52 1008.71 1008.90 1009.09 1009.29 1009.50 1009.71 1009.90 1010.06 1010.18 1010.25 1010.29 1010.30 1010.29 1010.27 1010.27 1010.28 1010.32 1010.39 1010.49 1010.62 1010.76 1010.92 1011.08 1011.24 1011.39 1011.51 1011.61 1011.67 1011.71 1011.71 1011.70 1011.67 1011.66 1011.67
1003.75 1004.45 1005.14 1005.77 1006.33 1006.81 1007.20 1007.53 1007.80 1008.03 1008.24 1008.43 1008.62 1008.80 1008.97 1009.12 1009.25 1009.36 1009.44 1009.50 1009.54 1009.58 1009.61 1009.65 1009.70 1009.75 1009.82 1009.91 1010.00 1010.12 1010.25 1010.39 1010.54 1010.70 1010.85 1010.98 1011.10 1011.19 1011.26 1011.30 1011.34 1011.36 1011.41
1002.99 1003.61 1004.24 1004.83 1005.38 1005.87 1006.29 1006.66 1006.97 1007.24 1007.47 1007.67 1007.85 1008.01 1008.14 1008.26 1008.36 1008.45 1008.54 1008.62 1008.70 1008.79 1008.89 1008.98 1009.07 1009.17 1009.26 1009.35 1009.43 1009.53 1009.63 1009.75 1009.89 1010.04 1010.20 1010.37 1010.53 1010.67 1010.79 1010.89 1010.98 1011.06 1011.14
1002.53 1003.04 1003.56 1004.08 1004.58 1005.05 1005.47 1005.86 1006.20 1006.49 1006.75 1006.96 1007.13 1007.26 1007.37 1007.45 1007.53 1007.61 1007.69 1007.79 1007.91 1008.05 1008.20 1008.35 1008.51 1008.64 1008.77 1008.87 1008.97 1009.06 1009.15 1009.25 1009.38 1009.52 1009.68 1009.85 1010.03 1010.21 1010.37 1010.52 1010.65 1010.77 1010.88
1002.49 1002.85 1003.25 1003.66 1004.08 1004.50 1004.90 1005.28 1005.63 1005.95 1006.21 1006.43 1006.60 1006.72 1006.81 1006.87 1006.92 1006.98 1007.06 1007.17 1007.31 1007.49 1007.68 1007.88 1008.08 1008.27 1008.43 1008.57 1008.68 1008.77 1008.86 1008.95 1009.06 1009.19 1009.34 1009.51 1009.69 1009.88 1010.06 1010.23 1010.38 1010.52 1010.65
1002.88 1003.10 1003.36 1003.66 1003.98 1004.33 1004.69 1005.05 1005.40 1005.72 1006.00 1006.23 1006.40 1006.52 1006.59 1006.64 1006.67 1006.71 1006.77 1006.87 1007.01 1007.20 1007.41 1007.64 1007.87 1008.09 1008.29 1008.45 1008.58 1008.69 1008.78 1008.87 1008.97 1009.08 1009.21 1009.36 1009.53 1009.70 1009.87 1010.04 1010.20 1010.34 1010.47
1003.65 1003.74 1003.87 1004.04 1004.27 1004.55 1004.86 1005.19 1005.53 1005.86 1006.15 1006.39 1006.57 1006.69 1006.76 1006.79 1006.80 1006.81 1006.84 1006.92 1007.04 1007.20 1007.40 1007.63 1007.87 1008.09 1008.30 1008.48 1008.63 1008.76 1008.86 1008.95 1009.05 1009.15 1009.26 1009.38 1009.52 1009.67 1009.82 1009.96 1010.10 1010.23 1010.35
1004.65 1004.62 1004.65 1004.72 1004.87 1005.07 1005.33 1005.64 1005.97 1006.29 1006.59 1006.85 1007.04 1007.17 1007.24 1007.25 1007.24 1007.22 1007.21 1007.24 1007.31 1007.42 1007.57 1007.76 1007.97 1008.19 1008.39 1008.58 1008.74 1008.87 1008.99 1009.09 1009.19 1009.28 1009.38 1009.48 1009.59 1009.70 1009.82 1009.94 1010.05 1010.16 1010.27
1005.68 1005.59 1005.53 1005.53 1005.60 1005.75 1005.97 1006.25 1006.56 1006.89 1007.20 1007.46 1007.67 1007.80 1007.87 1007.87 1007.84 1007.78 1007.71 1007.67 1007.67 1007.70 1007.79 1007.91 1008.06 1008.23 1008.40 1008.58 1008.74 1008.89 1009.02 1009.14 1009.24 1009.34 1009.43 1009.52 1009.61 1009.70 1009.79 1009.89 1009.99 1010.08 1010.18
1006.59 1006.44 1006.33 1006.27 1006.30 1006.41 1006.60 1006.85 1007.15 1007.47 1007.78 1008.05 1008.26 1008.40 1008.46 1008.45 1008.38 1008.28 1008.16 1008.04 1007.95 1007.89 1007.88 1007.91 1007.98 1008.09 1008.22 1008.37 1008.52 1008.67 1008.82 1008.95 1009.08 1009.19 1009.30 1009.39 1009.48 1009.56 1009.65 1009.74 1009.84 1009.94 1010.05
1007.25 1007.07 1006.92 1006.84 1006.83 1006.91 1007.07 1007.30 1007.58 1007.88 1008.18 1008.44 1008.65 1008.78 1008.83 1008.80 1008.71 1008.56 1008.38 1008.19 1008.01 1007.86 1007.75 1007.68 1007.66 1007.69 1007.77 1007.87 1008.01 1008.16 1008.31 1008.47 1008.62 1008.76 1008.89 1009.01 1009.12 1009.22 1009.33 1009.44 1009.55 1009.68 1009.82
1007.64 1007.44 1007.28 1007.18 1007.15 1007.20 1007.34 1007.54 1007.79 1008.06 1008.33 1008.58 1008.76 1008.88 1008.91 1008.87 1008.75 1008.57 1008.34 1008.09 1007.84 1007.60 1007.40 1007.25 1007.15 1007.10 1007.11 1007.17 1007.27 1007.41 1007.57 1007.74 1007.91 1008.08 1008.25 1008.40 1008.55 1008.69 1008.83 1008.99 1009.15 1009.32 1009.51
1007.83 1007.63 1007.46 1007.35 1007.30 1007.33 1007.43 1007.60 1007.81 1008.04 1008.27 1008.48 1008.63 1008.73 1008.75 1008.68 1008.55 1008.35 1008.09 1007.81 1007.51 1007.22 1006.96 1006.74 1006.57 1006.46 1006.40 1006.42 1006.48 1006.59 1006.74 1006.91 1007.10 1007.29 1007.48 1007.67 1007.86 1008.05 1008.25 1008.45 1008.67 1008.90 1009.14
1007.96 1007.75 1007.58 1007.46 1007.40 1007.41 1007.48 1007.60 1007.76 1007.94 1008.11 1008.27 1008.39 1008.45 1008.45 1008.38 1008.24 1008.04 1007.79 1007.51 1007.20 1006.89 1006.60 1006.35 1006.13 1005.97 1005.87 1005.83 1005.86 1005.93 1006.04 1006.19 1006.37 1006.57 1006.77 1006.99 1007.21 1007.45 1007.69 1007.95 1008.22 1008.51 1008.80
1008.14 1007.94 1007.77 1007.65 1007.58 1007.56 1007.59 1007.67 1007.77 1007.89 1008.01 1008.11 1008.19 1008.22 1008.20 1008.14 1008.01 1007.84 1007.62 1007.36 1007.09 1006.80 1006.52 1006.27 1006.04 1005.86 1005.72 1005.64 1005.61 1005.63 1005.70 1005.80 1005.95 1006.12 1006.31 1006.53 1006.76 1007.02 1007.30 1007.60 1007.91 1008.24 1008.56
1008.48 1008.28 1008.12 1008.00 1007.92 1007.89 1007.88 1007.91 1007.96 1008.02 1008.07 1008.13 1008.16 1008.16 1008.14 1008.08 1007.99 1007.86 1007.70 1007.51 1007.30 1007.07 1006.84 1006.62 1006.41 1006.22 1006.07 1005.95 1005.87 1005.83 1005.84 1005.88 1005.97 1006.08 1006.24 1006.43 1006.65 1006.90 1007.19 1007.49 1007.82 1008.16 1008.49
1008.99 1008.81 1008.67 1008.55 1008.47 1008.42 1008.39 1008.37 1008.37 1008.37 1008.37 1008.37 1008.36 1008.35 1008.32 1008.28 1008.23 1008.16 1008.07 1007.96 1007.84 1007.70 1007.55 1007.39 1007.22 1007.06 1006.90 1006.76 1006.64 1006.55 1006.48 1006.45 1006.46 1006.50 1006.59 1006.72 1006.90 1007.12 1007.38 1007.67 1007.98 1008.29 1008.61
1009.62 1009.47 1009.35 1009.25 1009.17 1009.11 1009.05 1009.00 1008.96 1008.91 1008.86 1008.82 1008.77 1008.74 1008.71 1008.69 1008.67 1008.66 1008.65 1008.63 1008.61 1008.57 1008.51 1008.43 1008.33 1008.21 1008.07 1007.92 1007.78 1007.63 1007.51 1007.40 1007.33 1007.29 1007.31 1007.37 1007.48 1007.64 1007.84 1008.08 1008.34 1008.62 1008.88
1010.27 1010.15 1010.05 1009.97 1009.90 1009.83 1009.76 1009.69 1009.61 1009.52 1009.43 1009.35 1009.27 1009.21 1009.18 1009.16 1009.18 1009.22 1009.27 1009.33 1009.39 1009.45 1009.48 1009.48 1009.45 1009.39 1009.29 1009.16 1009.00 1008.84 1008.67 1008.51 1008.37 1008.27 1008.20 1008.19 1008.23 1008.32 1008.45 1008.62 1008.82 1009.02 1009.22
1010.82 1010.73 1010.65 1010.59 1010.53 1010.47 1010.39 1010.31 1010.20 1010.08 1009.96 1009.84 1009.73 1009.64 1009.59 1009.57 1009.59 1009.65 1009.74 1009.86 1009.98 1010.10 1010.21 1010.29 1010.33 1010.33 1010.28 1010.19 1010.05 1009.89 1009.71 1009.53 1009.35 1009.20 1009.09 1009.02 1008.99 1009.01 1009.07 1009.17 1009.29 1009.42 1009.54
1011.19 1011.12 1011.06 1011.02 1010.97 1010.92 1010.84 1010.75 1010.63 1010.49 1010.34 1010.18 1010.04 1009.92 1009.83 1009.79 1009.79 1009.84 1009.93 1010.06 1010.22 1010.38 1010.53 1010.67 1010.77 1010.83 1010.83 1010.79 1010.71 1010.58 1010.42 1010.25 1010.08 1009.92 1009.78 1009.67 1009.60 1009.57 1009.57 1009.61 1009.66 1009.71 1009.76
Thickness
5820 5816 5813 5809 5806 5802 5798 5795 5793 5790 5787 5783 5780 5777 5774 5771 5768 5764 5761 5759 5756 5754 5752 5750 5748 5747 5744 5743 5742 5740 5738 5734 5727 5729 5732 5732 5731 5729 5727 5726 5725 5724 5722
5820 5816 5812 5809 5805 5801 5798 5795 5793 5789 5786 5783 5780 5776 5773 5770 5767 5763 5759 5758 5754 5751 5749 5747 5745 5744 5741 5739 5737 5735 5734 5732 5727 5723 5725 5726 5726 5725 5723 5721 5720 5720 5717
5819 5814 5810 5807 5804 5800 5798 5795 5792 5788 5785 5782 5778 5774 5771 5768 5765 5762 5758 5755 5752 5750 5747 5744 5741 5739 5736 5734 5733 5731 5730 5730 5727 5722 5720 5721 5720 5719 5717 5716 5715 5713 5712
5816 5812 5807 5804 5802 5799 5796 5794 5790 5787 5783 5780 5777 5774 5770 5766 5763 5759 5756 5753 5749 5747 5745 5742 5739 5735 5732 5730 5729 5727 5726 5723 5722 5719 5716 5715 5713 5713 5711 5707 5706 5706 5705
5812 5808 5806 5804 5801 5797 5793 5791 5788 5785 5782 5779 5775 5771 5768 5764 5760 5756 5753 5750 5745 5742 5740 5738 5734 5732 5729 5726 5725 5722 5720 5718 5716 5714 5711 5709 5706 5704 5702 5701 5699 5698 5698
5808 5804 5803 5801 5797 5794 5791 5788 5784 5781 5778 5775 5771 5767 5763 5761 5757 5753 5750 5746 5742 5738 5734 5733 5730 5727 5724 5722 5719 5717 5715 5712 5709 5707 5705 5702 5699 5698 5697 5695 5692 5690 5688
5803 5801 5799 5796 5793 5790 5788 5783 5779 5776 5773 5769 5766 5763 5758 5755 5752 5749 5745 5742 5738 5734 5731 5728 5726 5724 5720 5717 5715 5712 5710 5707 5705 5702 5699 5696 5694 5693 5690 5689 5687 5685 5683
5796 5795 5794 5790 5786 5784 5781 5778 5775 5771 5768 5765 5761 5758 5753 5749 5746 5743 5739 5738 5735 5731 5728 5724 5720 5716 5713 5710 5709 5707 5705 5702 5701 5698 5695 5693 5691 5689 5686 5684 5682 5680 5679
5788 5787 5786 5784 5780 5777 5774 5771 5769 5765 5762 5759 5756 5752 5747 5743 5739 5736 5733 5731 5728 5725 5722 5718 5714 5709 5705 5702 5701 5699 5697 5695 5694 5692 5689 5687 5685 5683 5680 5677 5674 5672 5669
5781 5780 5779 5777 5774 5770 5767 5765 5762 5758 5754 5752 5748 5745 5741 5736 5731 5728 5725 5725 5721 5718 5715 5711 5706 5702 5698 5695 5693 5691 5688 5687 5686 5684 5682 5680 5678 5676 5674 5671 5668 5664 5661
5773 5772 5771 5769 5767 5765 5761 5758 5755 5751 5747 5743 5739 5737 5734 5729 5724 5720 5717 5716 5714 5711 5708 5704 5699 5694 5690 5687 5684 5682 5680 5678 5678 5677 5675 5673 5671 5669 5667 5665 5662 5658 5654
5762 5761 5759 5758 5758 5757 5752 5748 5745 5741 5738 5735 5732 5729 5726 5722 5719 5713 5709 5706 5705 5703 5701 5698 5693 5688 5684 5680 5677 5675 5673 5671 5671 5669 5666 5664 5662 5660 5659 5657 5655 5652 5649
5750 5748 5747 5746 5746 5746 5741 5736 5733 5729 5727 5726 5723 5720 5717 5714 5710 5705 5701 5698 5696 5695 5694 5690 5685 5681 5676 5672 5670 5667 5665 5664 5662 5660 5658 5656 5655 5653 5651 5648 5646 5643 5640
5735 5735 5735 5734 5734 5734 5731 5728 5724 5720 5719 5717 5714 5710 5708 5706 5703 5698 5694 5690 5686 5685 5683 5679 5675 5671 5668 5666 5663 5660 5658 5657 5654 5652 5650 5649 5647 5644 5641 5638 5634 5632 5629
5722 5722 5722 5723 5722 5720 5718 5715 5714 5712 5711 5708 5705 5703 5699 5696 5694 5690 5686 5683 5680 5677 5673 5670 5667 5663 5661 5659 5657 5655 5652 5649 5646 5644 5642 5639 5636 5634 5631 5629 5625 5623 5619
5709 5710 5711 5712 5711 5709 5706 5703 5700 5700 5698 5696 5694 5691 5689 5687 5682 5679 5677 5674 5670 5666 5663 5662 5659 5657 5654 5652 5650 5647 5644 5641 5638 5636 5633 5630 5627 5624 5621 5619 5616 5613 5610
5697 5698 5700 5700 5700 5699 5697 5695 5691 5687 5685 5683 5681 5679 5677 5673 5671 5668 5665 5663 5660 5656 5654 5653 5651 5648 5646 5644 5642 5639 5636 5634 5631 5627 5624 5621 5618 5615 5612 5609 5606 5602 5599
5687 5688 5689 5689 5689 5689 5688 5687 5685 5681 5677 5673 5668 5666 5665 5662 5658 5655 5653 5650 5649 5646 5647 5645 5642 5640 5637 5635 5633 5631 5628 5625 5622 5618 5615 5612 5608 5605 5602 5599 5596 5593 5589
5676 5677 5677 5678 5678 5679 5679 5678 5677 5674 5670 5665 5660 5656 5653 5650 5646 5643 5641 5642 5642 5640 5638 5636 5635 5632 5629 5626 5624 5622 5619 5616 5612 5609 5606 5602 5599 5596 5593 5590 5587 5583 5580
5666 5666 5666 5667 5667 5667 5666 5666 5665 5663 5660 5656 5653 5649 5644 5640 5638 5635 5632 5632 5632 5631 5629 5627 5625 5623 5619 5616 5614 5611 5609 5606 5603 5599 5596 5593 5589 5586 5583 5580 5577 5574 5571
5655 5656 5655 5656 5657 5657 5657 5655 5654 5653 5650 5647 5645 5642 5636 5635 5632 5628 5626 5624 5623 5621 5618 5616 5614 5612 5609 5606 5604 5601 5599 5596 5592 5588 5585 5582 5579 5576 5573 5570 5567 5564 5561
5644 5646 5647 5646 5646 5646 5646 5645 5644 5643 5641 5639 5636 5631 5626 5626 5624 5622 5618 5616 5614 5612 5609 5606 5604 5601 5598 5595 5592 5590 5586 5583 5579 5576 5573 5570 5567 5565 5562 5559 5556 5553 5550
5635 5636 5637 5637 5636 5635 5635 5636 5635 5633 5632 5630 5627 5622 5618 5616 5614 5611 5609 5606 5604 5601 5599 5596 5594 5590 5587 5584 5581 5577 5573 5569 5565 5563 5560 5558 5555 5553 5551 5547 5544 5541 5539
5626 5627 5627 5627 5627 5626 5626 5626 5625 5623 5622 5619 5616 5613 5610 5606 5604 5602 5600 5597 5594 5591 5589 5586 5583 5580 5576 5572 5568 5564 5560 5556 5553 5551 5548 5545 5543 5541 5539 5535 5532 5530 5527
5619 5619 5618 5618 5618 5618 5617 5616 5614 5613 5611 5609 5606 5603 5601 5598 5595 5593 5591 5588 5585 5582 5579 5576 5573 5569 5565 5561 5556 5551 5548 5544 5541 5538 5535 5534 5532 5529 5527 5524 5522 5519 5516
5611 5611 5610 5610 5610 5609 5608 5606 5605 5604 5602 5600 5598 5595 5592 5589 5587 5584 5581 5579 5576 5572 5569 5566 5562 5557 5553 5548 5543 5539 5536 5533 5530 5527 5524 5522 5521 5519 5516 5513 5511 5508 5506